CAPE
0 0 0 0 0 0 0 0 0 0 0 0 0 0 0 0 0 0 0 0 0 0 0 0 0 0 0 0 0 0 0 0 3 1 0 0 0 0 0 0 0 0 0
0 0 0 0 0 0 0 0 0 0 0 0 0 0 0 0 0 0 0 0 0 0 0 0 0 1 0 0 0 0 0 0 0 1 0 0 0 0 0 0 0 0 0
0 0 0 0 0 0 0 0 0 0 0 0 0 1 0 0 0 0 0 0 0 0 0 0 0 0 0 0 0 0 0 0 0 0 2 0 0 0 0 0 0 0 0
0 0 0 0 0 0 0 0 0 0 0 0 0 0 1 0 0 0 0 0 0 0 0 0 0 0 0 0 0 0 0 0 0 1 0 0 0 0 0 0 0 0 0
0 0 0 0 0 0 0 0 0 0 0 0 0 0 0 0 0 0 0 0 0 0 0 0 0 0 0 0 0 0 0 0 0 0 0 0 0 0 0 0 0 0 0
0 0 0 0 0 0 0 0 0 0 0 0 1 1 0 0 1 0 0 0 0 0 0 0 0 0 0 1 2 1 0 0 0 0 0 0 0 0 0 0 0 0 0
0 0 0 0 0 0 0 0 0 0 0 0 0 0 0 0 0 0 0 0 0 0 0 0 0 0 1 1 0 1 1 2 1 0 0 0 0 0 0 0 0 0 0
0 0 0 0 0 0 0 0 0 0 1 0 0 0 0 0 1 1 0 0 0 0 0 0 0 1 0 0 0 0 0 0 0 0 0 0 0 0 0 0 0 0 0
0 0 0 0 0 0 0 0 0 0 0 0 0 0 0 0 0 0 0 0 0 0 0 0 0 0 0 0 0 0 0 0 0 0 0 0 0 0 0 0 0 0 0
0 0 0 0 0 0 0 0 0 0 0 0 0 0 0 0 0 0 0 0 0 0 0 0 0 0 0 0 0 0 0 0 0 0 0 0 0 0 0 0 0 0 0
0 0 0 0 0 0 0 0 0 0 0 0 0 0 0 0 0 0 0 0 0 0 0 0 0 0 1 3 4 0 0 0 0 0 0 0 0 0 0 0 0 0 0
0 0 0 0 0 0 0 0 0 0 1 0 0 0 0 0 0 0 0 0 0 0 0 0 0 1 2 2 3 1 2 4 0 0 0 0 0 0 0 0 0 0 0
0 0 0 0 0 0 0 0 0 0 1 0 0 0 0 0 0 1 1 2 4 1 0 0 3 5 7 6 4 5 2 0 0 0 0 0 0 0 0 0 0 0 0
0 0 0 0 0 0 0 0 0 0 0 1 0 0 0 0 0 0 0 0 0 0 0 0 0 0 0 1 0 0 0 0 0 0 0 0 0 0 0 0 0 0 0
0 0 0 0 0 0 0 0 0 0 0 0 0 0 0 0 0 0 0 0 0 0 0 0 0 0 0 0 0 0 0 0 0 0 0 0 0 0 0 0 0 0 0
0 0 0 0 0 0 0 0 0 0 0 0 0 0 0 0 1 2 1 0 0 0 0 0 0 0 0 0 0 0 0 0 0 0 0 0 0 0 0 0 0 0 0
0 0 0 0 0 0 0 0 0 0 0 0 0 0 0 0 0 0 0 0 0 0 0 0 0 0 0 0 0 0 0 0 0 0 0 0 0 0 0 0 0 0 0
0 0 0 0 0 0 0 0 0 0 0 0 0 0 0 0 0 0 0 0 0 0 0 0 0 0 0 0 0 0 0 0 0 0 0 0 0 0 0 0 0 0 0
0 0 0 0 0 0 0 0 0 0 0 0 0 0 0 0 0 0 0 0 0 0 0 0 0 0 0 0 0 0 0 0 0 0 0 0 0 0 0 0 0 0 0
0 0 0 0 0 0 0 0 0 0 0 0 0 0 0 0 0 0 0 0 0 0 0 0 0 0 0 0 0 0 0 0 0 0 0 0 0 0 0 0 0 0 0
0 0 0 0 0 0 0 0 0 0 0 0 0 0 0 0 0 0 0 0 0 0 0 0 0 0 0 0 0 0 0 0 0 0 0 0 0 0 0 0 0 0 0
0 0 0 0 0 0 0 0 0 0 0 0 0 0 0 0 0 0 0 0 0 0 0 0 0 0 0 0 0 0 0 0 0 0 0 0 0 0 0 0 0 0 0
0 0 0 0 0 0 0 0 0 0 0 0 0 0 0 0 0 0 0 0 0 0 0 0 0 0 0 0 0 0 0 0 0 0 0 0 0 0 0 0 0 0 0
0 0 0 0 0 0 0 0 0 0 0 0 0 0 0 0 0 0 0 0 0 0 0 0 0 0 0 0 0 0 0 0 0 0 0 0 0 0 0 0 0 0 0
0 0 0 0 0 0 0 0 0 0 0 0 0 0 0 0 0 0 0 0 0 0 0 0 0 0 0 0 0 0 0 0 0 0 0 0 0 0 0 0 0 0 0
0 0 0 0 0 0 0 0 0 0 0 0 0 0 0 0 0 0 0 0 0 0 0 0 0 0 0 0 0 0 0 0 0 0 0 0 0 0 0 0 0 0 0
CIN
-0 -0 -0 -0 -0 -0 -0 -0 -0 -0 -0 -0 -0 -0 -0 -0 -0 -0 -0 -0 -0 -0 -0 -0 -0 -0 -1 -1 -0 -0 -0 -0 -0 -0 -0 -0 -0 -0 -0 -0 -0 -0 -0
-0 -0 -0 -0 -0 -0 -0 -0 -0 -0 -0 -0 -0 -0 -0 -0 -0 -0 -0 -0 -0 -0 -0 -0 -0 -1 -1 -0 -1 -0 -0 -0 -0 -0 -0 -0 -0 -0 -0 -0 -0 -0 -0
-0 -0 -0 -0 -0 -0 -0 -0 -0 -0 -0 -0 -0 -0 -0 -0 -0 -0 -0 -0 -0 -0 -0 -0 -0 -0 -0 -0 -0 -0 -0 -0 -0 -0 -0 -0 -0 -0 -0 -0 -0 -0 -0
-0 -0 -0 -0 -0 -0 -0 -0 -0 -0 -0 -0 -0 -0 -0 -0 -0 -0 -0 -0 -0 -0 -0 -0 -0 -0 -0 -0 -0 -0 -0 -0 -0 -0 -0 -0 -0 -0 -0 -0 -0 -0 -0
-0 -0 -0 -0 -0 -0 -0 -0 -0 -0 -0 -0 -0 -0 -0 -0 -0 -0 -0 -0 -0 -0 -0 -0 -0 -0 -0 -0 -0 -0 -0 -0 -0 -0 -0 -0 -0 -0 -0 -0 -0 -0 -0
-0 -0 -0 -0 -0 -0 -0 -0 -0 -0 -0 -0 -0 -0 -0 -0 -0 -0 -0 -0 -0 -0 -0 -0 -0 -0 -0 -0 -0 -0 -0 -0 -0 -0 -0 -0 -0 -0 -0 -0 -0 -0 -0
-0 -0 -0 -0 -0 -0 -0 -0 -0 -0 -0 -0 -0 -0 -0 -0 -0 -0 -0 -0 -0 -0 -0 -0 -0 -0 -0 -0 -0 -0 -0 -0 -0 -0 -0 -0 -0 -0 -0 -0 -0 -0 -0
-0 -0 -0 -0 -0 -0 -0 -0 -0 -0 -0 -0 -0 -0 -0 -0 -0 -0 -0 -0 -0 -0 -0 -0 -0 -0 -0 -0 -0 -0 -0 -0 -0 -0 -0 -0 -0 -0 -0 -0 -0 -0 -0
-0 -0 -0 -0 -0 -0 -0 -0 -0 -0 -0 -0 -0 -0 -0 -0 -0 -0 -0 -0 -0 -0 -0 -0 -0 -0 -0 -0 -0 -0 -0 -0 -0 -0 -0 -0 -0 -0 -0 -0 -0 -0 -0
-0 -0 -0 -0 -0 -0 -0 -0 -0 -0 -0 -0 -0 -0 -0 -0 -0 -0 -0 -0 -0 -0 -0 -0 -0 -0 -0 -0 -0 -0 -0 -0 -0 -0 -0 -0 -0 -0 -0 -0 -0 -0 -0
-0 -0 -0 -0 -0 -0 -0 -0 -0 -0 -0 -0 -0 -0 -0 -0 -0 -0 -0 -0 -0 -0 -0 -0 -0 -0 -0 -0 -0 -0 -0 -0 -0 -0 -0 -0 -0 -0 -0 -0 -0 -0 -0
-0 -0 -0 -0 -0 -0 -0 -0 -0 -0 -0 -0 -0 -0 -0 -0 -0 -0 -0 -0 -0 -0 -0 -0 -0 -0 -0 -0 -0 -0 -0 -0 -0 -0 -0 -0 -0 -0 -0 -0 -0 -0 -0
-0 -0 -0 -0 -0 -0 -0 -0 -0 -0 -0 -0 -0 -0 -0 -0 -0 -0 -1 -0 -0 -1 -0 -0 -0 -0 -0 -0 -0 -0 -0 -0 -0 -0 -0 -0 -0 -0 -0 -0 -0 -0 -0
-0 -0 -0 -0 -0 -0 -0 -0 -0 -0 -0 -0 -0 -0 -0 -0 -0 -0 -0 -0 -0 -0 -0 -0 -0 -0 -0 -0 -0 -0 -0 -0 -0 -0 -0 -0 -0 -0 -0 -0 -0 -0 -0
-0 -0 -0 -0 -0 -0 -0 -0 -0 -0 -0 -0 -0 -0 -0 -0 -1 -0 -0 -0 -0 -0 -0 -0 -0 -0 -0 -0 -0 -0 -0 -0 -0 -0 -0 -0 -0 -0 -0 -0 -0 -0 -0
-0 -0 -0 -0 -0 -0 -0 -0 -0 -0 -0 -0 -0 -0 -0 -0 -0 -0 -0 -0 -0 -0 -0 -0 -0 -0 -0 -0 -0 -0 -0 -0 -0 -0 -0 -0 -0 -0 -0 -0 -0 -0 -0
-0 -0 -0 -0 -0 -0 -0 -0 -0 -0 -0 -0 -0 -0 -0 -0 -0 -0 -0 -0 -0 -0 -0 -0 -0 -0 -0 -0 -0 -0 -0 -0 -0 -0 -0 -0 -0 -0 -0 -0 -0 -0 -0
-0 -0 -0 -0 -0 -0 -0 -0 -0 -0 -0 -0 -0 -0 -0 -0 -0 -0 -0 -0 -0 -0 -0 -0 -0 -0 -0 -0 -0 -0 -0 -0 -0 -0 -0 -0 -0 -0 -0 -0 -0 -0 -0
-0 -0 -0 -0 -0 -0 -0 -0 -0 -0 -0 -0 -0 -0 -0 -0 -0 -0 -0 -0 -0 -0 -0 -0 -0 -0 -0 -0 -0 -0 -0 -0 -0 -0 -0 -0 -0 -0 -0 -0 -0 -0 -0
-0 -0 -0 -0 -0 -0 -0 -0 -0 -0 -0 -0 -0 -0 -0 -0 -0 -0 -0 -0 -0 -0 -0 -0 -0 -0 -0 -0 -0 -0 -0 -0 -0 -0 -0 -0 -0 -0 -0 -0 -0 -0 -0
-0 -0 -0 -0 -0 -0 -0 -0 -0 -0 -0 -0 -0 -0 -0 -0 -0 -0 -0 -0 -0 -0 -0 -0 -0 -0 -0 -0 -0 -0 -0 -0 -0 -0 -0 -0 -0 -0 -0 -0 -0 -0 -0
-0 -0 -0 -0 -0 -0 -0 -0 -0 -0 -0 -0 -0 -0 -0 -0 -0 -0 -0 -0 -0 -0 -0 -0 -0 -0 -0 -0 -0 -0 -0 -0 -0 -0 -0 -0 -0 -0 -0 -0 -0 -0 -0
-0 -0 -0 -0 -0 -0 -0 -0 -0 -0 -0 -0 -0 -0 -0 -0 -0 -0 -0 -0 -0 -0 -0 -0 -0 -0 -0 -0 -0 -0 -0 -0 -0 -0 -0 -0 -0 -0 -0 -0 -0 -0 -0
-0 -0 -0 -0 -0 -0 -0 -0 -0 -0 -0 -0 -0 -0 -0 -0 -0 -0 -0 -0 -0 -0 -0 -0 -0 -0 -0 -0 -0 -0 -0 -0 -0 -0 -0 -0 -0 -0 -0 -0 -0 -0 -0
-0 -0 -0 -0 -0 -0 -0 -0 -0 -0 -0 -0 -0 -0 -0 -0 -0 -0 -0 -0 -0 -0 -0 -0 -0 -0 -0 -0 -0 -0 -0 -0 -0 -0 -0 -0 -0 -0 -0 -0 -0 -0 -0
-0 -0 -0 -0 -0 -0 -0 -0 -0 -0 -0 -0 -0 -0 -0 -0 -0 -0 -0 -0 -0 -0 -0 -0 -0 -0 -0 -0 -0 -0 -0 -0 -0 -0 -0 -0 -0 -0 -0 -0 -0 -0 -0
Wind_Speed
17 16 18 19 19 19 20 20 19 20 19 19 18 19 19 19 17 16 13 12 11 14 14 13 11 10 10 9 7 8 12 16 20 23 25 26 31 25 26 24 24 23 24
16 17 19 19 20 20 21 21 21 21 20 19 19 19 18 17 16 15 14 12 11 12 13 14 12 11 8 9 8 7 8 10 14 19 25 26 27 25 26 25 24 24 24
18 19 20 22 22 22 22 22 21 21 20 19 19 18 18 17 16 15 14 13 12 12 13 12 13 13 12 12 10 10 12 14 13 16 20 21 22 23 24 23 24 24 26
18 19 22 23 24 24 23 22 21 20 20 18 19 19 18 17 17 16 15 14 13 14 15 13 13 12 12 12 11 12 12 13 15 17 20 22 23 25 26 27 25 25 29
18 20 23 23 24 23 22 22 21 20 20 19 19 19 19 18 18 17 16 15 14 15 17 16 15 14 14 13 11 11 12 15 16 17 19 22 25 26 27 24 26 27 29
20 21 21 22 22 23 23 22 22 21 21 21 21 20 20 19 19 18 16 16 16 17 17 18 19 20 18 16 16 15 15 13 16 19 21 23 24 23 23 25 26 28 28
19 19 19 19 21 21 21 21 21 22 21 22 23 22 22 22 21 20 19 19 18 18 20 22 22 21 20 20 23 24 22 19 18 20 23 24 26 25 27 28 27 29 30
18 18 19 20 21 22 22 22 22 22 23 23 23 23 24 24 22 22 21 21 21 22 23 24 24 23 23 24 25 26 27 26 25 25 25 28 28 28 28 30 32 32 32
19 19 20 20 22 22 23 23 23 24 25 25 24 24 24 23 23 23 22 22 23 25 25 25 26 28 29 29 28 30 30 30 29 29 30 31 31 31 30 30 32 33 36
19 19 20 19 20 22 23 23 23 23 25 24 24 23 23 24 24 23 23 23 25 26 25 26 27 28 30 30 30 31 33 35 34 33 33 34 35 34 33 31 32 35 35
18 18 18 19 20 21 22 23 24 24 24 24 24 24 24 23 23 23 23 25 25 26 27 28 27 29 30 31 31 31 33 35 36 37 37 37 36 35 34 33 31 34 36
18 18 19 20 21 21 22 22 23 22 23 24 24 24 24 23 21 22 21 23 25 26 27 27 27 29 30 31 32 33 34 34 34 35 35 36 37 36 35 34 33 32 32
17 18 20 21 21 21 22 22 22 22 22 23 23 23 24 22 23 23 21 23 25 25 25 27 27 28 28 29 29 30 30 31 32 32 33 33 32 32 30 31 29 29 29
18 19 20 20 20 21 21 21 22 22 23 22 23 23 24 24 22 22 24 25 26 27 26 27 28 29 28 28 27 27 28 29 31 31 32 31 31 30 29 28 29 29 30
18 18 19 19 20 21 21 21 22 22 21 22 22 23 24 25 22 23 24 24 26 26 28 26 28 26 26 25 24 25 27 29 28 28 29 31 30 29 29 27 28 27 28
18 18 19 20 21 21 22 23 22 23 23 23 24 24 25 24 25 25 25 26 27 26 27 28 27 25 25 25 25 26 27 27 27 27 28 29 30 30 30 28 27 27 29
19 20 21 22 22 23 24 25 27 26 26 27 27 26 25 26 26 26 27 28 28 28 28 29 29 28 28 27 27 27 28 27 27 29 30 30 31 31 31 31 30 30 30
20 22 23 24 25 26 27 28 29 31 33 32 28 28 29 29 29 30 30 31 31 30 30 32 32 31 31 30 29 29 29 29 29 30 30 30 31 31 32 31 30 31 31
24 25 26 27 28 29 30 31 32 33 34 35 35 34 33 33 33 33 33 33 34 35 35 35 34 34 34 33 32 31 31 30 30 31 31 31 30 30 31 31 31 31 31
28 29 30 32 33 34 34 36 37 38 39 40 40 39 37 37 39 39 37 38 39 39 38 38 38 37 37 36 35 34 34 33 33 32 32 32 32 31 32 32 31 32 32
31 32 33 35 36 37 39 40 41 41 42 43 43 40 40 41 43 43 43 42 42 42 42 41 40 40 39 38 38 37 36 36 34 34 33 33 32 32 31 31 31 31 31
34 36 37 39 40 42 42 43 43 44 45 46 47 45 44 45 46 47 46 45 44 44 43 43 43 42 41 40 39 39 38 38 36 35 35 34 33 33 32 32 33 32 31
37 40 42 43 43 45 46 46 47 48 48 48 48 49 48 48 48 49 50 49 48 47 46 45 46 46 43 42 40 39 40 39 38 36 37 36 36 36 35 35 34 33 32
40 42 43 45 46 47 47 48 47 46 46 46 45 44 45 45 47 49 49 49 48 48 47 46 46 46 45 44 42 40 40 39 38 37 36 37 38 37 36 35 34 33 33
38 39 39 40 39 38 38 38 38 39 39 39 40 40 40 41 42 43 44 44 44 45 44 43 43 43 43 43 42 41 39 38 37 36 35 36 38 37 36 35 34 32 31
32 32 32 32 30 29 27 26 26 27 28 29 30 31 32 33 34 34 34 33 33 33 34 35 36 37 37 37 37 37 36 35 34 32 31 33 33 33 32 32 30 30 28
Wind_Direction
256 262 266 271 276 281 284 289 292 296 299 301 305 307 308 309 313 315 318 318 316 315 313 314 314 317 316 318 321 316 307 301 298 295 293 288 284 291 292 297 299 300 301
259 264 270 275 278 282 286 290 292 294 297 300 303 305 306 310 313 314 316 317 315 314 313 309 310 313 310 314 315 313 311 309 306 303 293 290 289 291 293 294 298 300 302
263 267 272 276 280 283 286 289 291 293 296 299 302 303 304 307 311 313 313 314 312 310 310 309 308 307 307 310 309 310 309 307 307 305 303 301 301 302 301 301 300 303 303
267 272 276 280 283 285 287 288 290 291 294 296 299 302 303 305 307 310 311 311 310 307 305 306 305 301 301 302 305 308 309 308 304 301 300 299 300 300 301 297 299 306 301
274 279 282 285 287 288 288 289 290 291 293 295 297 299 302 303 305 307 308 308 306 304 301 301 301 299 297 295 295 296 300 303 302 300 300 301 299 298 298 304 302 304 304
280 283 287 289 290 290 290 290 290 290 291 293 294 297 299 300 303 303 304 304 303 300 299 297 297 295 293 290 291 292 294 291 295 296 297 297 299 301 302 300 301 302 302
289 291 292 293 293 293 294 294 292 292 293 292 293 294 295 299 300 301 301 300 299 298 296 294 294 293 292 292 291 290 289 287 288 294 294 295 297 298 299 297 297 298 298
295 298 296 295 295 293 293 293 294 294 294 294 295 296 296 296 297 297 297 297 295 294 294 293 291 289 290 291 292 291 290 289 288 288 290 293 295 296 296 296 295 296 299
295 295 296 297 295 295 294 295 295 295 293 294 296 297 297 299 299 298 297 295 293 292 292 291 289 288 289 289 289 289 290 290 291 289 289 291 292 293 294 295 294 295 295
296 300 300 302 302 299 297 298 298 297 296 299 300 302 302 300 302 301 299 297 294 292 293 292 291 290 289 288 288 288 288 288 290 291 291 291 291 291 291 290 292 292 294
301 306 307 307 305 303 301 300 299 300 302 303 303 304 303 305 305 303 300 298 296 295 294 294 294 293 292 290 289 288 288 291 290 290 290 290 291 291 291 291 289 289 290
304 307 309 306 305 304 303 304 304 306 306 306 306 307 308 308 308 308 306 302 300 298 297 297 297 296 294 292 291 291 292 292 292 292 292 292 292 291 291 292 291 290 290
308 307 306 306 306 307 308 309 309 310 308 308 309 309 309 311 311 310 310 307 305 303 303 302 301 299 298 297 296 296 296 296 295 294 294 295 296 296 297 296 296 296 295
308 309 311 312 313 314 314 313 312 311 311 311 310 310 310 309 310 310 309 308 307 305 306 305 304 303 301 301 301 300 299 299 297 296 297 299 300 300 298 298 297 297 295
317 316 317 318 317 316 317 316 315 316 315 313 311 311 310 308 309 310 309 308 307 308 308 309 308 308 307 305 303 303 305 304 301 301 300 301 301 301 300 300 298 297 294
317 319 320 320 320 320 320 319 320 317 315 312 310 309 309 308 307 307 306 306 306 307 307 307 307 308 307 307 305 305 305 305 307 306 305 303 302 302 301 302 301 298 296
316 317 318 318 318 318 318 316 314 316 314 311 309 308 307 307 306 305 304 303 304 304 303 303 303 303 303 304 304 304 304 305 304 303 303 303 303 303 302 301 300 298 298
315 315 315 315 314 313 313 312 312 310 307 308 310 309 307 305 304 303 302 301 300 300 300 300 300 300 300 300 301 301 302 302 302 302 302 302 302 301 301 301 301 301 300
309 309 310 310 310 310 310 309 309 308 307 306 306 305 304 303 301 300 299 296 296 296 296 296 296 296 296 297 297 298 298 298 299 299 300 300 300 301 300 300 300 300 299
306 306 307 307 308 307 307 306 305 304 303 303 302 302 303 302 298 296 295 293 293 293 294 293 293 293 293 293 293 294 294 294 295 295 296 297 297 298 297 298 298 298 298
305 305 305 306 305 305 305 303 303 302 302 301 301 302 301 298 296 295 294 293 291 291 291 291 291 291 290 290 290 290 290 291 291 292 293 294 295 295 296 296 296 297 297
305 305 305 304 304 303 303 302 302 301 300 299 299 300 299 298 296 294 293 292 291 290 289 289 288 288 288 288 288 287 287 287 288 289 289 290 291 292 293 293 292 293 293
305 304 304 303 303 302 301 300 299 298 298 298 298 298 298 297 296 295 293 292 290 289 288 286 286 286 286 286 286 285 285 285 286 286 286 287 287 287 288 288 289 289 289
304 304 303 303 303 303 302 300 300 299 298 298 299 299 300 300 299 298 296 294 292 290 288 286 284 284 284 284 284 284 284 285 285 284 284 284 285 285 285 285 285 285 286
306 307 307 308 310 311 310 308 306 304 303 303 303 304 305 306 307 306 304 300 296 292 289 288 287 286 285 284 284 283 284 284 283 283 283 283 283 283 283 283 283 283 283
313 313 313 314 316 318 320 321 321 319 317 315 314 314 314 315 317 318 318 316 311 305 299 295 293 290 289 288 287 286 285 285 284 283 283 283 282 282 282 281 281 281 281